Time,TemperatureF,DewpointF,PressureIn,WindDirection,WindDirectionDegrees,WindSpeedMPH,WindSpeedGustMPH,Humidity,HourlyPrecipIn,Conditions,Clouds,dailyrainin,SoftwareType,DateUTC
2013-06-01 00:00:00,61.8,32.4,29.69,NNW,342,0.0,0.0,33,0.00,,---,0.00,VWS V14.01,2013-06-01 07:00:00,
2013-06-01 00:05:00,61.6,33.0,29.69,NNW,342,0.0,0.0,34,0.00,,---,0.00,VWS V14.01,2013-06-01 07:05:00,
2013-06-01 00:10:00,63.5,33.1,29.69,NNW,342,0.0,0.0,32,0.00,,---,0.00,VWS V14.01,2013-06-01 07:10:00,
2013-06-01 00:15:00,64.6,33.3,29.69,NNW,342,0.0,0.0,31,0.00,,---,0.00,VWS V14.01,2013-06-01 07:15:00,
2013-06-01 00:20:00,65.3,33.1,29.69,NNW,342,0.0,0.0,30,0.00,,---,0.00,VWS V14.01,2013-06-01 07:20:00,
2013-06-01 00:25:00,66.2,33.9,29.69,NNW,342,0.0,0.0,30,0.00,,---,0.00,VWS V14.01,2013-06-01 07:25:00,
2013-06-01 00:30:00,67.0,33.7,29.69,NNW,342,0.0,0.0,29,0.00,,---,0.00,VWS V14.01,2013-06-01 07:30:00,
2013-06-01 00:35:00,68.0,33.7,29.69,NNW,346,0.0,0.0,28,0.00,,---,0.00,VWS V14.01,2013-06-01 07:35:00,
2013-06-01 00:40:00,68.7,34.3,29.68,NNW,347,0.0,0.0,28,0.00,,---,0.00,VWS V14.01,2013-06-01 07:40:00,
2013-06-01 00:45:00,69.2,33.8,29.69,North,350,4.0,5.0,27,0.00,,---,0.00,VWS V14.01,2013-06-01 07:45:00,
2013-06-01 00:50:00,70.0,34.5,29.68,North,355,3.0,5.0,27,0.00,,---,0.00,VWS V14.01,2013-06-01 07:50:00,
2013-06-01 00:55:00,70.3,33.8,29.68,North,360,3.0,5.0,26,0.00,,---,0.00,VWS V14.01,2013-06-01 07:55:00,
2013-06-01 01:00:00,70.2,33.7,29.68,North,9,0.0,4.0,26,0.00,,---,0.00,VWS V14.01,2013-06-01 08:00:00,
2013-06-01 01:05:00,69.9,34.4,29.68,NNE,13,0.0,1.0,27,0.00,,---,0.00,VWS V14.01,2013-06-01 08:05:00,
2013-06-01 01:10:00,69.7,34.3,29.68,NNE,12,0.0,0.0,27,0.00,,---,0.00,VWS V14.01,2013-06-01 08:10:00,
2013-06-01 01:15:00,69.6,34.2,29.68,NNE,13,0.0,0.0,27,0.00,,---,0.00,VWS V14.01,2013-06-01 08:15:00,
2013-06-01 01:20:00,69.6,34.2,29.68,North,360,0.0,0.0,27,0.00,,---,0.00,VWS V14.01,2013-06-01 08:20:00,
2013-06-01 01:25:00,68.6,33.3,29.68,North,5,0.0,1.0,27,0.00,,---,0.00,VWS V14.01,2013-06-01 08:25:00,
2013-06-01 01:30:00,66.2,33.0,29.68,North,5,0.0,0.0,29,0.00,,---,0.00,VWS V14.01,2013-06-01 08:30:00,
2013-06-01 01:35:00,66.3,33.1,29.68,NE,44,0.0,1.0,29,0.00,,---,0.00,VWS V14.01,2013-06-01 08:35:00,
2013-06-01 01:40:00,65.4,32.3,29.68,NE,52,0.0,1.0,29,0.00,,---,0.00,VWS V14.01,2013-06-01 08:40:00,
2013-06-01 01:45:00,65.1,32.9,29.68,NE,55,0.0,1.0,30,0.00,,---,0.00,VWS V14.01,2013-06-01 08:45:00,
2013-06-01 01:50:00,64.8,32.7,29.67,NE,55,0.0,0.0,30,0.00,,---,0.00,VWS V14.01,2013-06-01 08:50:00,
2013-06-01 01:55:00,64.1,32.1,29.68,NE,55,0.0,0.0,30,0.00,,---,0.00,VWS V14.01,2013-06-01 08:55:00,
2013-06-01 02:00:00,63.2,32.1,29.68,NE,55,0.0,0.0,31,0.00,,---,0.00,VWS V14.01,2013-06-01 09:00:00,
2013-06-01 02:05:00,62.6,31.6,29.68,NE,55,0.0,0.0,31,0.00,,---,0.00,VWS V14.01,2013-06-01 09:05:00,
2013-06-01 02:10:00,62.3,32.1,29.68,NE,55,0.0,0.0,32,0.00,,---,0.00,VWS V14.01,2013-06-01 09:10:00,
2013-06-01 02:15:00,62.1,31.9,29.68,NE,55,0.0,0.0,32,0.00,,---,0.00,VWS V14.01,2013-06-01 09:15:00,
2013-06-01 02:20:00,62.2,32.0,29.68,NE,55,0.0,0.0,32,0.00,,---,0.00,VWS V14.01,2013-06-01 09:20:00,
2013-06-01 02:25:00,62.6,32.3,29.68,ENE,58,0.0,1.0,32,0.00,,---,0.00,VWS V14.01,2013-06-01 09:25:00,
2013-06-01 02:30:00,62.9,32.6,29.68,ENE,61,1.0,2.0,32,0.00,,---,0.00,VWS V14.01,2013-06-01 09:30:00,
2013-06-01 02:35:00,62.8,31.7,29.68,ENE,74,0.0,2.0,31,0.00,,---,0.00,VWS V14.01,2013-06-01 09:35:00,
2013-06-01 02:40:00,62.3,32.1,29.68,ENE,74,0.0,0.0,32,0.00,,---,0.00,VWS V14.01,2013-06-01 09:40:00,
2013-06-01 02:45:00,61.9,31.7,29.68,ENE,74,0.0,0.0,32,0.00,,---,0.00,VWS V14.01,2013-06-01 09:45:00,
2013-06-01 02:50:00,61.6,31.5,29.68,ENE,74,0.0,0.0,32,0.00,,---,0.00,VWS V14.01,2013-06-01 09:50:00,
2013-06-01 02:55:00,61.2,31.9,29.68,ENE,74,0.0,0.0,33,0.00,,---,0.00,VWS V14.01,2013-06-01 09:55:00,
2013-06-01 03:00:00,60.8,31.5,29.68,ENE,74,0.0,0.0,33,0.00,,---,0.00,VWS V14.01,2013-06-01 10:00:00,
2013-06-01 03:05:00,60.4,31.9,29.68,ENE,74,0.0,0.0,34,0.00,,---,0.00,VWS V14.01,2013-06-01 10:05:00,
2013-06-01 03:10:00,60.0,31.6,29.68,ENE,77,0.0,0.0,34,0.00,,---,0.00,VWS V14.01,2013-06-01 10:10:00,
2013-06-01 03:15:00,59.7,31.3,29.67,ENE,77,0.0,0.0,34,0.00,,---,0.00,VWS V14.01,2013-06-01 10:15:00,
2013-06-01 03:20:00,59.0,30.7,29.67,ENE,77,0.0,0.0,34,0.00,,---,0.00,VWS V14.01,2013-06-01 10:20:00,
2013-06-01 03:25:00,59.0,31.4,29.67,ENE,78,0.0,0.0,35,0.00,,---,0.00,VWS V14.01,2013-06-01 10:25:00,
2013-06-01 03:30:00,58.7,31.1,29.67,ENE,78,0.0,0.0,35,0.00,,---,0.00,VWS V14.01,2013-06-01 10:30:00,
2013-06-01 03:35:00,58.8,31.2,29.67,ENE,78,0.0,0.0,35,0.00,,---,0.00,VWS V14.01,2013-06-01 10:35:00,
2013-06-01 03:40:00,59.0,31.4,29.67,ENE,78,0.0,0.0,35,0.00,,---,0.00,VWS V14.01,2013-06-01 10:40:00,
2013-06-01 03:45:00,59.0,31.4,29.67,North,0,0.0,0.0,35,0.00,,---,0.00,VWS V14.01,2013-06-01 10:45:00,
2013-06-01 03:50:00,59.7,32.0,29.67,ENE,68,0.0,2.0,35,0.00,,---,0.00,VWS V14.01,2013-06-01 10:50:00,
2013-06-01 03:57:00,59.7,32.0,29.67,ENE,68,0.0,2.0,35,0.00,,---,0.00,VWS V14.01,2013-06-01 10:57:00,
2013-06-01 04:00:00,59.0,31.4,29.68,ENE,78,0.0,0.0,35,0.00,,---,0.00,VWS V14.01,2013-06-01 11:00:00,
2013-06-01 04:02:00,59.0,32.1,29.67,ENE,78,0.0,0.0,36,0.00,,---,0.00,VWS V14.01,2013-06-01 11:02:00,
2013-06-01 04:05:00,59.0,32.1,29.67,ENE,78,0.0,0.0,36,0.00,,---,0.00,VWS V14.01,2013-06-01 11:05:00,
2013-06-01 04:07:00,59.0,32.1,29.67,ENE,78,0.0,0.0,36,0.00,,---,0.00,VWS V14.01,2013-06-01 11:07:00,
2013-06-01 04:10:00,59.0,32.1,29.67,ENE,78,0.0,0.0,36,0.00,,---,0.00,VWS V14.01,2013-06-01 11:10:00,
2013-06-01 04:12:00,59.2,32.3,29.68,ENE,78,0.0,0.0,36,0.00,,---,0.00,VWS V14.01,2013-06-01 11:12:00,
2013-06-01 04:15:00,59.2,32.3,29.68,ENE,78,1.0,1.0,36,0.00,,---,0.00,VWS V14.01,2013-06-01 11:15:00,
2013-06-01 04:17:00,59.0,31.4,29.68,ENE,78,2.0,2.0,35,0.00,,---,0.00,VWS V14.01,2013-06-01 11:17:00,
2013-06-01 04:20:00,59.0,31.4,29.68,ENE,78,0.0,3.0,35,0.00,,---,0.00,VWS V14.01,2013-06-01 11:20:00,
2013-06-01 04:22:00,58.6,31.8,29.68,East,79,0.0,1.0,36,0.00,,---,0.00,VWS V14.01,2013-06-01 11:22:00,
2013-06-01 04:25:00,58.6,31.8,29.68,East,80,0.0,1.0,36,0.00,,---,0.00,VWS V14.01,2013-06-01 11:25:00,
2013-06-01 04:27:00,58.4,31.6,29.67,East,79,0.0,1.0,36,0.00,,---,0.00,VWS V14.01,2013-06-01 11:27:00,
2013-06-01 04:30:00,58.4,31.6,29.67,East,80,0.0,1.0,36,0.00,,---,0.00,VWS V14.01,2013-06-01 11:30:00,
2013-06-01 04:32:00,58.1,31.3,29.68,East,79,0.0,0.0,36,0.00,,---,0.00,VWS V14.01,2013-06-01 11:32:00,
2013-06-01 04:35:00,58.1,31.3,29.68,East,80,0.0,0.0,36,0.00,,---,0.00,VWS V14.01,2013-06-01 11:35:00,
2013-06-01 04:37:00,57.9,31.1,29.68,East,80,0.0,0.0,36,0.00,,---,0.00,VWS V14.01,2013-06-01 11:37:00,
2013-06-01 04:40:00,57.9,31.1,29.68,East,79,0.0,0.0,36,0.00,,---,0.00,VWS V14.01,2013-06-01 11:40:00,
2013-06-01 04:42:00,57.8,31.7,29.68,East,80,0.0,0.0,37,0.00,,---,0.00,VWS V14.01,2013-06-01 11:42:00,
2013-06-01 04:45:00,57.8,31.7,29.68,East,80,0.0,0.0,37,0.00,,---,0.00,VWS V14.01,2013-06-01 11:45:00,
2013-06-01 04:47:00,57.6,31.5,29.68,East,79,0.0,0.0,37,0.00,,---,0.00,VWS V14.01,2013-06-01 11:47:00,
2013-06-01 04:50:00,57.6,31.5,29.68,East,80,0.0,0.0,37,0.00,,---,0.00,VWS V14.01,2013-06-01 11:50:00,
2013-06-01 04:52:00,57.8,31.7,29.68,East,80,0.0,0.0,37,0.00,,---,0.00,VWS V14.01,2013-06-01 11:52:00,
2013-06-01 04:55:00,57.8,31.7,29.68,East,80,0.0,0.0,37,0.00,,---,0.00,VWS V14.01,2013-06-01 11:55:00,
2013-06-01 04:57:00,57.8,31.7,29.69,East,79,0.0,1.0,37,0.00,,---,0.00,VWS V14.01,2013-06-01 11:57:00,
2013-06-01 05:00:00,57.8,31.7,29.69,East,80,1.0,1.0,37,0.00,,---,0.00,VWS V14.01,2013-06-01 12:00:00,
2013-06-01 05:02:00,57.7,31.6,29.69,East,82,0.0,3.0,37,0.00,,---,0.00,VWS V14.01,2013-06-01 12:02:00,
2013-06-01 05:05:00,57.7,31.6,29.69,East,82,0.0,3.0,37,0.00,,---,0.00,VWS V14.01,2013-06-01 12:05:00,
2013-06-01 05:07:00,57.9,31.1,29.69,East,82,0.0,0.0,36,0.00,,---,0.00,VWS V14.01,2013-06-01 12:07:00,
2013-06-01 05:10:00,57.9,31.1,29.69,East,82,0.0,0.0,36,0.00,,---,0.00,VWS V14.01,2013-06-01 12:10:00,
2013-06-01 05:12:00,58.0,31.2,29.69,East,82,0.0,0.0,36,0.00,,---,0.00,VWS V14.01,2013-06-01 12:12:00,
2013-06-01 05:15:00,58.0,31.2,29.69,East,82,0.0,0.0,36,0.00,,---,0.00,VWS V14.01,2013-06-01 12:15:00,
2013-06-01 05:17:00,57.9,31.1,29.69,East,82,0.0,1.0,36,0.00,,---,0.00,VWS V14.01,2013-06-01 12:17:00,
2013-06-01 05:20:00,57.9,31.8,29.69,East,82,0.0,1.0,37,0.00,,---,0.00,VWS V14.01,2013-06-01 12:20:00,
2013-06-01 05:22:00,57.7,31.6,29.69,East,82,0.0,0.0,37,0.00,,---,0.00,VWS V14.01,2013-06-01 12:22:00,
2013-06-01 05:25:00,57.7,31.6,29.69,East,82,0.0,0.0,37,0.00,,---,0.00,VWS V14.01,2013-06-01 12:25:00,
2013-06-01 05:27:00,57.7,31.6,29.69,East,82,0.0,0.0,37,0.00,,---,0.00,VWS V14.01,2013-06-01 12:27:00,
2013-06-01 05:30:00,57.7,31.6,29.69,East,82,0.0,0.0,37,0.00,,---,0.00,VWS V14.01,2013-06-01 12:30:00,
2013-06-01 05:32:00,57.5,32.1,29.70,East,82,0.0,0.0,38,0.00,,---,0.00,VWS V14.01,2013-06-01 12:32:00,
2013-06-01 05:35:00,57.5,32.1,29.70,East,82,0.0,0.0,38,0.00,,---,0.00,VWS V14.01,2013-06-01 12:35:00,
2013-06-01 05:37:00,57.5,32.1,29.70,East,82,0.0,0.0,38,0.00,,---,0.00,VWS V14.01,2013-06-01 12:37:00,
2013-06-01 05:40:00,57.6,32.2,29.70,East,82,0.0,0.0,38,0.00,,---,0.00,VWS V14.01,2013-06-01 12:40:00,
2013-06-01 05:42:00,58.0,32.6,29.70,East,82,0.0,0.0,38,0.00,,---,0.00,VWS V14.01,2013-06-01 12:42:00,
2013-06-01 05:45:00,58.1,32.7,29.70,East,82,0.0,0.0,38,0.00,,---,0.00,VWS V14.01,2013-06-01 12:45:00,
2013-06-01 05:47:00,59.0,32.8,29.70,East,83,0.0,3.0,37,0.00,,---,0.00,VWS V14.01,2013-06-01 12:47:00,
2013-06-01 05:50:00,59.0,32.8,29.70,East,83,0.0,3.0,37,0.00,,---,0.00,VWS V14.01,2013-06-01 12:50:00,
2013-06-01 05:52:00,59.8,33.5,29.70,East,83,0.0,0.0,37,0.00,,---,0.00,VWS V14.01,2013-06-01 12:52:00,
2013-06-01 05:55:00,59.9,32.9,29.70,East,83,0.0,0.0,36,0.00,,---,0.00,VWS V14.01,2013-06-01 12:55:00,
2013-06-01 05:57:00,60.7,33.6,29.70,East,83,0.0,0.0,36,0.00,,---,0.00,VWS V14.01,2013-06-01 12:57:00,
2013-06-01 06:00:00,60.9,33.8,29.70,East,83,0.0,0.0,36,0.00,,---,0.00,VWS V14.01,2013-06-01 13:00:00,
2013-06-01 06:02:00,61.8,33.9,29.70,East,84,0.0,0.0,35,0.00,,---,0.00,VWS V14.01,2013-06-01 13:02:00,
2013-06-01 06:05:00,62.0,34.1,29.70,East,84,0.0,1.0,35,0.00,,---,0.00,VWS V14.01,2013-06-01 13:05:00,
2013-06-01 06:07:00,63.0,34.2,29.70,East,87,0.0,2.0,34,0.00,,---,0.00,VWS V14.01,2013-06-01 13:07:00,
2013-06-01 06:10:00,63.1,34.3,29.70,East,87,0.0,2.0,34,0.00,,---,0.00,VWS V14.01,2013-06-01 13:10:00,
2013-06-01 06:12:00,64.2,35.3,29.70,East,87,0.0,0.0,34,0.00,,---,0.00,VWS V14.01,2013-06-01 13:12:00,
2013-06-01 06:15:00,64.3,35.4,29.70,East,87,0.0,0.0,34,0.00,,---,0.00,VWS V14.01,2013-06-01 13:15:00,
2013-06-01 06:17:00,65.5,35.7,29.70,East,87,0.0,0.0,33,0.00,,---,0.00,VWS V14.01,2013-06-01 13:17:00,
2013-06-01 06:20:00,65.7,35.8,29.70,East,87,0.0,0.0,33,0.00,,---,0.00,VWS V14.01,2013-06-01 13:20:00,
2013-06-01 06:22:00,67.0,36.2,29.70,East,87,0.0,0.0,32,0.00,,---,0.00,VWS V14.01,2013-06-01 13:22:00,
2013-06-01 06:25:00,67.2,36.4,29.70,East,87,0.0,0.0,32,0.00,,---,0.00,VWS V14.01,2013-06-01 13:25:00,
2013-06-01 06:27:00,68.3,36.5,29.71,East,87,0.0,0.0,31,0.00,,---,0.00,VWS V14.01,2013-06-01 13:27:00,
2013-06-01 06:30:00,68.4,36.6,29.71,East,87,0.0,0.0,31,0.00,,---,0.00,VWS V14.01,2013-06-01 13:30:00,
2013-06-01 06:32:00,69.5,37.6,29.70,East,87,0.0,0.0,31,0.00,,---,0.00,VWS V14.01,2013-06-01 13:32:00,
2013-06-01 06:35:00,69.7,37.7,29.70,East,87,0.0,0.0,31,0.00,,---,0.00,VWS V14.01,2013-06-01 13:35:00,
2013-06-01 06:37:00,70.9,38.0,29.71,East,87,0.0,0.0,30,0.00,,---,0.00,VWS V14.01,2013-06-01 13:37:00,
2013-06-01 06:40:00,71.0,38.0,29.71,East,87,0.0,0.0,30,0.00,,---,0.00,VWS V14.01,2013-06-01 13:40:00,
2013-06-01 06:42:00,71.7,37.8,29.71,East,87,0.0,0.0,29,0.00,,---,0.00,VWS V14.01,2013-06-01 13:42:00,
2013-06-01 06:45:00,71.8,37.0,29.71,East,87,0.0,0.0,28,0.00,,---,0.00,VWS V14.01,2013-06-01 13:45:00,
2013-06-01 06:47:00,72.5,37.6,29.71,East,87,0.0,1.0,28,0.00,,---,0.00,VWS V14.01,2013-06-01 13:47:00,
2013-06-01 06:50:00,72.5,37.6,29.71,East,88,0.0,1.0,28,0.00,,---,0.00,VWS V14.01,2013-06-01 13:50:00,
2013-06-01 06:52:00,72.9,37.0,29.71,East,88,0.0,3.0,27,0.00,,---,0.00,VWS V14.01,2013-06-01 13:52:00,
2013-06-01 06:55:00,73.0,37.1,29.71,East,88,0.0,3.0,27,0.00,,---,0.00,VWS V14.01,2013-06-01 13:55:00,
2013-06-01 06:57:00,73.5,38.4,29.71,East,88,0.0,1.0,28,0.00,,---,0.00,VWS V14.01,2013-06-01 13:57:00,
2013-06-01 07:00:00,73.6,38.5,29.71,East,88,1.0,3.0,28,0.00,,---,0.00,VWS V14.01,2013-06-01 14:00:00,
2013-06-01 07:02:00,74.2,38.1,29.71,East,88,0.0,1.0,27,0.00,,---,0.00,VWS V14.01,2013-06-01 14:02:00,
2013-06-01 07:05:00,74.2,37.1,29.71,East,88,0.0,1.0,26,0.00,,---,0.00,VWS V14.01,2013-06-01 14:05:00,
2013-06-01 07:07:00,74.7,38.5,29.72,East,88,0.0,1.0,27,0.00,,---,0.00,VWS V14.01,2013-06-01 14:07:00,
2013-06-01 07:10:00,74.8,38.6,29.72,East,88,2.0,2.0,27,0.00,,---,0.00,VWS V14.01,2013-06-01 14:10:00,
2013-06-01 07:12:00,75.3,38.1,29.72,East,90,0.0,2.0,26,0.00,,---,0.00,VWS V14.01,2013-06-01 14:12:00,
2013-06-01 07:15:00,75.3,38.1,29.72,East,90,0.0,2.0,26,0.00,,---,0.00,VWS V14.01,2013-06-01 14:15:00,
2013-06-01 07:17:00,75.7,37.4,29.72,East,90,0.0,1.0,25,0.00,,---,0.00,VWS V14.01,2013-06-01 14:17:00,
2013-06-01 07:20:00,75.7,37.4,29.72,East,90,0.0,1.0,25,0.00,,---,0.00,VWS V14.01,2013-06-01 14:20:00,
2013-06-01 07:22:00,75.9,37.6,29.72,South,175,0.0,5.0,25,0.00,,---,0.00,VWS V14.01,2013-06-01 14:22:00,
2013-06-01 07:25:00,75.8,37.5,29.72,South,175,3.0,5.0,25,0.00,,---,0.00,VWS V14.01,2013-06-01 14:25:00,
2013-06-01 07:27:00,75.9,36.5,29.72,South,176,2.0,3.0,24,0.00,,---,0.00,VWS V14.01,2013-06-01 14:27:00,
2013-06-01 07:30:00,75.9,36.6,29.72,South,176,1.0,3.0,24,0.00,,---,0.00,VWS V14.01,2013-06-01 14:30:00,
2013-06-01 07:32:00,76.0,36.6,29.72,South,180,1.0,2.0,24,0.00,,---,0.00,VWS V14.01,2013-06-01 14:32:00,
2013-06-01 07:35:00,76.1,36.7,29.72,South,180,2.0,2.0,24,0.00,,---,0.00,VWS V14.01,2013-06-01 14:35:00,
2013-06-01 07:37:00,76.3,36.9,29.72,South,181,0.0,3.0,24,0.00,,---,0.00,VWS V14.01,2013-06-01 14:37:00,
2013-06-01 07:40:00,76.3,36.9,29.72,South,181,0.0,3.0,24,0.00,,---,0.00,VWS V14.01,2013-06-01 14:40:00,
2013-06-01 07:42:00,76.9,37.4,29.72,South,180,0.0,1.0,24,0.00,,---,0.00,VWS V14.01,2013-06-01 14:42:00,
2013-06-01 07:45:00,76.9,37.4,29.72,South,181,0.0,1.0,24,0.00,,---,0.00,VWS V14.01,2013-06-01 14:45:00,
2013-06-01 07:47:00,77.2,36.6,29.72,South,180,0.0,3.0,23,0.00,,---,0.00,VWS V14.01,2013-06-01 14:47:00,
2013-06-01 07:50:00,77.1,36.5,29.72,South,180,0.0,3.0,23,0.00,,---,0.00,VWS V14.01,2013-06-01 14:50:00,
2013-06-01 07:52:00,77.3,36.7,29.72,South,181,0.0,2.0,23,0.00,,---,0.00,VWS V14.01,2013-06-01 14:52:00,
2013-06-01 07:55:00,77.3,36.7,29.72,South,180,0.0,2.0,23,0.00,,---,0.00,VWS V14.01,2013-06-01 14:55:00,
2013-06-01 07:57:00,77.8,37.1,29.72,South,181,0.0,1.0,23,0.00,,---,0.00,VWS V14.01,2013-06-01 14:57:00,
2013-06-01 08:00:00,77.8,37.1,29.72,South,181,0.0,1.0,23,0.00,,---,0.00,VWS V14.01,2013-06-01 15:00:00,
2013-06-01 08:02:00,78.2,37.4,29.72,South,181,0.0,1.0,23,0.00,,---,0.00,VWS V14.01,2013-06-01 15:02:00,
2013-06-01 08:05:00,78.3,37.5,29.72,South,180,0.0,1.0,23,0.00,,---,0.00,VWS V14.01,2013-06-01 15:05:00,
2013-06-01 08:07:00,78.7,37.8,29.72,South,186,4.0,4.0,23,0.00,,---,0.00,VWS V14.01,2013-06-01 15:07:00,
2013-06-01 08:10:00,78.7,37.8,29.72,South,186,1.0,4.0,23,0.00,,---,0.00,VWS V14.01,2013-06-01 15:10:00,
2013-06-01 08:12:00,78.7,37.8,29.72,South,188,1.0,3.0,23,0.00,,---,0.00,VWS V14.01,2013-06-01 15:12:00,
2013-06-01 08:15:00,78.7,37.8,29.72,South,188,0.0,3.0,23,0.00,,---,0.00,VWS V14.01,2013-06-01 15:15:00,
2013-06-01 08:17:00,79.0,38.1,29.72,SSW,207,0.0,4.0,23,0.00,,---,0.00,VWS V14.01,2013-06-01 15:17:00,
2013-06-01 08:20:00,79.0,38.1,29.72,SSW,207,1.0,4.0,23,0.00,,---,0.00,VWS V14.01,2013-06-01 15:20:00,
2013-06-01 08:22:00,79.3,38.3,29.71,WSW,246,0.0,4.0,23,0.00,,---,0.00,VWS V14.01,2013-06-01 15:22:00,
2013-06-01 08:25:00,79.3,38.3,29.71,WNW,295,5.0,5.0,23,0.00,,---,0.00,VWS V14.01,2013-06-01 15:25:00,
2013-06-01 08:27:00,79.7,38.7,29.71,NW,311,1.0,6.0,23,0.00,,---,0.00,VWS V14.01,2013-06-01 15:27:00,
2013-06-01 08:30:00,79.7,38.7,29.71,NW,311,0.0,6.0,23,0.00,,---,0.00,VWS V14.01,2013-06-01 15:30:00,
2013-06-01 08:32:00,79.8,38.8,29.71,NW,311,1.0,6.0,23,0.00,,---,0.00,VWS V14.01,2013-06-01 15:32:00,
2013-06-01 08:35:00,79.8,38.8,29.71,NW,311,1.0,6.0,23,0.00,,---,0.00,VWS V14.01,2013-06-01 15:35:00,
2013-06-01 08:37:00,80.1,37.9,29.71,NW,309,1.0,5.0,22,0.00,,---,0.00,VWS V14.01,2013-06-01 15:37:00,
2013-06-01 08:40:00,80.0,38.9,29.71,NW,309,3.0,5.0,23,0.00,,---,0.00,VWS V14.01,2013-06-01 15:40:00,
2013-06-01 08:42:00,80.2,39.1,29.71,West,278,4.0,10.0,23,0.00,,---,0.00,VWS V14.01,2013-06-01 15:42:00,
2013-06-01 08:45:00,80.2,39.1,29.71,WNW,300,6.0,10.0,23,0.00,,---,0.00,VWS V14.01,2013-06-01 15:45:00,
2013-06-01 08:47:00,80.6,38.3,29.71,NW,304,0.0,6.0,22,0.00,,---,0.00,VWS V14.01,2013-06-01 15:47:00,
2013-06-01 08:50:00,80.7,38.4,29.71,NW,304,0.0,6.0,22,0.00,,---,0.00,VWS V14.01,2013-06-01 15:50:00,
2013-06-01 08:52:00,81.0,38.6,29.71,WNW,299,1.0,5.0,22,0.00,,---,0.00,VWS V14.01,2013-06-01 15:52:00,
2013-06-01 08:55:00,81.0,38.6,29.71,WNW,299,2.0,5.0,22,0.00,,---,0.00,VWS V14.01,2013-06-01 15:55:00,
2013-06-01 08:57:00,81.1,38.7,29.71,West,263,6.0,7.0,22,0.00,,---,0.00,VWS V14.01,2013-06-01 15:57:00,
2013-06-01 09:00:00,81.2,38.8,29.71,West,273,6.0,7.0,22,0.00,,---,0.00,VWS V14.01,2013-06-01 16:00:00,
2013-06-01 09:02:00,81.4,38.9,29.70,West,272,3.0,6.0,22,0.00,,---,0.00,VWS V14.01,2013-06-01 16:02:00,
2013-06-01 09:05:00,81.5,39.0,29.70,West,272,2.0,6.0,22,0.00,,---,0.00,VWS V14.01,2013-06-01 16:05:00,
2013-06-01 09:07:00,82.1,39.5,29.70,NNW,343,2.0,6.0,22,0.00,,---,0.00,VWS V14.01,2013-06-01 16:07:00,
2013-06-01 09:10:00,82.3,38.5,29.70,NNW,343,3.0,6.0,21,0.00,,---,0.00,VWS V14.01,2013-06-01 16:10:00,
2013-06-01 09:12:00,82.8,38.9,29.70,NNW,336,3.0,5.0,21,0.00,,---,0.00,VWS V14.01,2013-06-01 16:12:00,
2013-06-01 09:15:00,82.7,38.8,29.70,NNW,336,2.0,5.0,21,0.00,,---,0.00,VWS V14.01,2013-06-01 16:15:00,
2013-06-01 09:17:00,82.9,39.0,29.70,NNW,336,4.0,4.0,21,0.00,,---,0.00,VWS V14.01,2013-06-01 16:17:00,
2013-06-01 09:20:00,82.9,39.0,29.70,NNW,334,5.0,6.0,21,0.00,,---,0.00,VWS V14.01,2013-06-01 16:20:00,
2013-06-01 09:22:00,83.2,39.2,29.70,NW,309,3.0,7.0,21,0.00,,---,0.00,VWS V14.01,2013-06-01 16:22:00,
2013-06-01 09:25:00,83.2,39.2,29.70,NW,309,0.0,7.0,21,0.00,,---,0.00,VWS V14.01,2013-06-01 16:25:00,
2013-06-01 09:27:00,83.3,39.3,29.70,NW,325,4.0,10.0,21,0.00,,---,0.00,VWS V14.01,2013-06-01 16:27:00,
2013-06-01 09:30:00,83.3,39.3,29.70,NW,325,1.0,10.0,21,0.00,,---,0.00,VWS V14.01,2013-06-01 16:30:00,
2013-06-01 09:32:00,83.7,38.4,29.69,WNW,296,4.0,7.0,20,0.00,,---,0.00,VWS V14.01,2013-06-01 16:32:00,
2013-06-01 09:35:00,83.8,38.5,29.69,WNW,296,3.0,7.0,20,0.00,,---,0.00,VWS V14.01,2013-06-01 16:35:00,
2013-06-01 09:37:00,84.0,38.7,29.69,NW,309,3.0,7.0,20,0.00,,---,0.00,VWS V14.01,2013-06-01 16:37:00,
2013-06-01 09:40:00,84.0,38.7,29.69,NW,306,5.0,7.0,20,0.00,,---,0.00,VWS V14.01,2013-06-01 16:40:00,
2013-06-01 09:42:00,84.3,38.9,29.69,West,273,0.0,5.0,20,0.00,,---,0.00,VWS V14.01,2013-06-01 16:42:00,
2013-06-01 09:45:00,84.4,39.0,29.69,West,273,0.0,5.0,20,0.00,,---,0.00,VWS V14.01,2013-06-01 16:45:00,
2013-06-01 09:47:00,84.6,39.2,29.69,NW,317,6.0,10.0,20,0.00,,---,0.00,VWS V14.01,2013-06-01 16:47:00,
2013-06-01 09:50:00,84.7,39.2,29.69,WNW,290,7.0,10.0,20,0.00,,---,0.00,VWS V14.01,2013-06-01 16:50:00,
2013-06-01 09:52:00,85.0,39.5,29.69,WNW,299,0.0,7.0,20,0.00,,---,0.00,VWS V14.01,2013-06-01 16:52:00,
2013-06-01 09:55:00,85.1,39.6,29.69,WNW,299,2.0,7.0,20,0.00,,---,0.00,VWS V14.01,2013-06-01 16:55:00,
2013-06-01 09:57:00,85.4,38.5,29.69,WNW,294,4.0,6.0,19,0.00,,---,0.00,VWS V14.01,2013-06-01 16:57:00,
2013-06-01 10:00:00,85.5,38.6,29.69,West,260,6.0,6.0,19,0.00,,---,0.00,VWS V14.01,2013-06-01 17:00:00,
2013-06-01 10:02:00,85.1,38.2,29.69,West,261,0.0,7.0,19,0.00,,---,0.00,VWS V14.01,2013-06-01 17:02:00,
2013-06-01 10:05:00,85.2,38.3,29.69,West,261,0.0,7.0,19,0.00,,---,0.00,VWS V14.01,2013-06-01 17:05:00,
2013-06-01 10:07:00,86.2,39.2,29.69,West,261,4.0,4.0,19,0.00,,---,0.00,VWS V14.01,2013-06-01 17:07:00,
2013-06-01 10:10:00,86.3,39.2,29.69,West,261,2.0,4.0,19,0.00,,---,0.00,VWS V14.01,2013-06-01 17:10:00,
2013-06-01 10:12:00,86.4,39.3,29.69,WNW,286,0.0,11.0,19,0.00,,---,0.00,VWS V14.01,2013-06-01 17:12:00,
2013-06-01 10:15:00,86.4,39.3,29.69,NNW,332,3.0,11.0,19,0.00,,---,0.00,VWS V14.01,2013-06-01 17:15:00,
2013-06-01 10:17:00,86.4,39.3,29.69,North,9,2.0,6.0,19,0.00,,---,0.00,VWS V14.01,2013-06-01 17:17:00,
2013-06-01 10:20:00,86.5,39.4,29.69,WSW,238,7.0,9.0,19,0.00,,---,0.00,VWS V14.01,2013-06-01 17:20:00,
2013-06-01 10:22:00,87.1,39.9,29.69,SW,229,1.0,10.0,19,0.00,,---,0.00,VWS V14.01,2013-06-01 17:22:00,
2013-06-01 10:25:00,87.3,40.0,29.69,WSW,257,7.0,10.0,19,0.00,,---,0.00,VWS V14.01,2013-06-01 17:25:00,
2013-06-01 10:27:00,87.5,38.8,29.69,SW,222,6.0,10.0,18,0.00,,---,0.00,VWS V14.01,2013-06-01 17:27:00,
2013-06-01 10:30:00,87.4,40.1,29.69,SW,222,4.0,10.0,19,0.00,,---,0.00,VWS V14.01,2013-06-01 17:30:00,
2013-06-01 10:32:00,87.1,38.5,29.69,SW,225,0.0,6.0,18,0.00,,---,0.00,VWS V14.01,2013-06-01 17:32:00,
2013-06-01 10:35:00,87.2,38.6,29.69,SW,227,2.0,6.0,18,0.00,,---,0.00,VWS V14.01,2013-06-01 17:35:00,
2013-06-01 10:37:00,87.4,38.7,29.69,West,277,7.0,7.0,18,0.00,,---,0.00,VWS V14.01,2013-06-01 17:37:00,
2013-06-01 10:40:00,87.4,38.7,29.69,NW,322,7.0,10.0,18,0.00,,---,0.00,VWS V14.01,2013-06-01 17:40:00,
2013-06-01 10:42:00,87.4,38.7,29.69,NW,323,2.0,7.0,18,0.00,,---,0.00,VWS V14.01,2013-06-01 17:42:00,
2013-06-01 10:45:00,87.5,38.8,29.69,SW,225,4.0,7.0,18,0.00,,---,0.00,VWS V14.01,2013-06-01 17:45:00,
2013-06-01 10:47:00,88.3,39.5,29.69,NW,317,3.0,7.0,18,0.00,,---,0.00,VWS V14.01,2013-06-01 17:47:00,
2013-06-01 10:50:00,88.4,39.5,29.69,NW,317,3.0,7.0,18,0.00,,---,0.00,VWS V14.01,2013-06-01 17:50:00,
2013-06-01 10:52:00,88.6,38.2,29.68,West,259,4.0,10.0,17,0.00,,---,0.00,VWS V14.01,2013-06-01 17:52:00,
2013-06-01 10:55:00,88.6,38.2,29.68,NW,326,1.0,10.0,17,0.00,,---,0.00,VWS V14.01,2013-06-01 17:55:00,
2013-06-01 10:57:00,88.7,38.3,29.69,NE,49,5.0,6.0,17,0.00,,---,0.00,VWS V14.01,2013-06-01 17:57:00,
2013-06-01 11:00:00,88.8,38.4,29.69,NE,55,5.0,7.0,17,0.00,,---,0.00,VWS V14.01,2013-06-01 18:00:00,
2013-06-01 11:02:00,89.2,38.7,29.68,NE,55,0.0,5.0,17,0.00,,---,0.00,VWS V14.01,2013-06-01 18:02:00,
2013-06-01 11:05:00,89.3,38.8,29.68,NE,55,0.0,5.0,17,0.00,,---,0.00,VWS V14.01,2013-06-01 18:05:00,
2013-06-01 11:07:00,89.9,39.3,29.68,SW,214,4.0,5.0,17,0.00,,---,0.00,VWS V14.01,2013-06-01 18:07:00,
2013-06-01 11:10:00,89.9,39.3,29.68,SW,215,0.0,5.0,17,0.00,,---,0.00,VWS V14.01,2013-06-01 18:10:00,
2013-06-01 11:12:00,90.1,39.5,29.68,SW,224,3.0,7.0,17,0.00,,---,0.00,VWS V14.01,2013-06-01 18:12:00,
2013-06-01 11:15:00,90.3,39.6,29.68,SW,216,5.0,7.0,17,0.00,,---,0.00,VWS V14.01,2013-06-01 18:15:00,
2013-06-01 11:17:00,90.3,39.6,29.68,SW,228,3.0,8.0,17,0.00,,---,0.00,VWS V14.01,2013-06-01 18:17:00,
2013-06-01 11:20:00,90.2,38.0,29.68,SW,227,2.0,8.0,16,0.00,,---,0.00,VWS V14.01,2013-06-01 18:20:00,
2013-06-01 11:22:00,90.6,38.3,29.68,SSW,213,4.0,7.0,16,0.00,,---,0.00,VWS V14.01,2013-06-01 18:22:00,
2013-06-01 11:25:00,90.6,38.3,29.68,SW,214,0.0,7.0,16,0.00,,---,0.00,VWS V14.01,2013-06-01 18:25:00,
2013-06-01 11:27:00,90.6,38.3,29.68,WSW,240,4.0,5.0,16,0.00,,---,0.00,VWS V14.01,2013-06-01 18:27:00,
2013-06-01 11:30:00,90.9,38.5,29.68,SSW,200,7.0,9.0,16,0.00,,---,0.00,VWS V14.01,2013-06-01 18:30:00,
2013-06-01 11:32:00,91.0,37.0,29.67,SSW,193,3.0,10.0,15,0.00,,---,0.00,VWS V14.01,2013-06-01 18:32:00,
2013-06-01 11:35:00,91.0,37.0,29.67,SSW,194,2.0,10.0,15,0.00,,---,0.00,VWS V14.01,2013-06-01 18:35:00,
2013-06-01 11:37:00,91.3,37.2,29.67,WNW,303,2.0,4.0,15,0.00,,---,0.00,VWS V14.01,2013-06-01 18:37:00,
2013-06-01 11:40:00,91.5,37.4,29.67,South,190,3.0,5.0,15,0.00,,---,0.00,VWS V14.01,2013-06-01 18:40:00,
2013-06-01 11:42:00,92.3,36.3,29.67,SE,135,7.0,11.0,14,0.00,,---,0.00,VWS V14.01,2013-06-01 18:42:00,
2013-06-01 11:45:00,92.2,36.2,29.67,SE,144,5.0,11.0,14,0.00,,---,0.00,VWS V14.01,2013-06-01 18:45:00,
2013-06-01 11:47:00,91.8,35.9,29.67,ESE,112,5.0,10.0,14,0.00,,---,0.00,VWS V14.01,2013-06-01 18:47:00,
2013-06-01 11:50:00,91.7,35.8,29.67,East,101,0.0,10.0,14,0.00,,---,0.00,VWS V14.01,2013-06-01 18:50:00,
2013-06-01 11:52:00,92.1,36.1,29.67,WSW,246,7.0,8.0,14,0.00,,---,0.00,VWS V14.01,2013-06-01 18:52:00,
2013-06-01 11:55:00,92.1,36.1,29.67,SSW,213,5.0,9.0,14,0.00,,---,0.00,VWS V14.01,2013-06-01 18:55:00,
2013-06-01 11:57:00,92.1,36.1,29.67,South,180,3.0,9.0,14,0.00,,---,0.00,VWS V14.01,2013-06-01 18:57:00,
2013-06-01 12:00:00,92.2,36.2,29.66,West,263,5.0,9.0,14,0.00,,---,0.00,VWS V14.01,2013-06-01 19:00:00,
2013-06-01 12:02:00,91.9,36.0,29.66,NW,307,5.0,10.0,14,0.00,,---,0.00,VWS V14.01,2013-06-01 19:02:00,
2013-06-01 12:05:00,91.8,35.9,29.66,NW,309,1.0,10.0,14,0.00,,---,0.00,VWS V14.01,2013-06-01 19:05:00,
2013-06-01 12:07:00,92.3,36.3,29.66,SSW,192,5.0,12.0,14,0.00,,---,0.00,VWS V14.01,2013-06-01 19:07:00,
2013-06-01 12:10:00,92.6,36.5,29.66,South,180,6.0,12.0,14,0.00,,---,0.00,VWS V14.01,2013-06-01 19:10:00,
2013-06-01 12:12:00,92.9,36.7,29.66,SE,135,0.0,10.0,14,0.00,,---,0.00,VWS V14.01,2013-06-01 19:12:00,
2013-06-01 12:15:00,93.0,36.8,29.66,West,280,6.0,10.0,14,0.00,,---,0.00,VWS V14.01,2013-06-01 19:15:00,
2013-06-01 12:17:00,92.5,36.4,29.66,West,271,2.0,11.0,14,0.00,,---,0.00,VWS V14.01,2013-06-01 19:17:00,
2013-06-01 12:20:00,92.4,36.3,29.66,WSW,242,2.0,11.0,14,0.00,,---,0.00,VWS V14.01,2013-06-01 19:20:00,
2013-06-01 12:22:00,93.1,36.9,29.66,South,188,5.0,12.0,14,0.00,,---,0.00,VWS V14.01,2013-06-01 19:22:00,
2013-06-01 12:25:00,93.2,37.0,29.66,SSE,161,10.0,12.0,14,0.00,,---,0.00,VWS V14.01,2013-06-01 19:25:00,
2013-06-01 12:27:00,93.2,37.0,29.66,South,169,4.0,12.0,14,0.00,,---,0.00,VWS V14.01,2013-06-01 19:27:00,
2013-06-01 12:30:00,93.2,37.0,29.66,South,179,2.0,12.0,14,0.00,,---,0.00,VWS V14.01,2013-06-01 19:30:00,
2013-06-01 12:32:00,93.3,37.0,29.66,SE,141,0.0,7.0,14,0.00,,---,0.00,VWS V14.01,2013-06-01 19:32:00,
2013-06-01 12:35:00,93.4,35.3,29.66,ESE,107,4.0,7.0,13,0.00,,---,0.00,VWS V14.01,2013-06-01 19:35:00,
2013-06-01 12:37:00,93.4,35.3,29.65,North,360,3.0,10.0,13,0.00,,---,0.00,VWS V14.01,2013-06-01 19:37:00,
2013-06-01 12:40:00,93.3,35.2,29.65,North,5,5.0,10.0,13,0.00,,---,0.00,VWS V14.01,2013-06-01 19:40:00,
2013-06-01 12:42:00,93.1,35.0,29.65,North,5,0.0,7.0,13,0.00,,---,0.00,VWS V14.01,2013-06-01 19:42:00,
2013-06-01 12:45:00,93.1,35.0,29.65,North,360,2.0,7.0,13,0.00,,---,0.00,VWS V14.01,2013-06-01 19:45:00,
2013-06-01 12:50:00,94.3,36.0,29.65,North,0,1.0,6.0,13,0.00,,---,0.00,VWS V14.01,2013-06-01 19:50:00,
2013-06-01 12:55:00,94.8,36.3,29.64,ENE,68,2.0,7.0,13,0.00,,---,0.00,VWS V14.01,2013-06-01 19:55:00,
2013-06-01 13:00:00,94.9,36.4,29.64,SSW,202,4.0,10.0,13,0.00,,---,0.00,VWS V14.01,2013-06-01 20:00:00,
2013-06-01 13:05:00,94.4,36.0,29.64,South,180,5.0,11.0,13,0.00,,---,0.00,VWS V14.01,2013-06-01 20:05:00,
2013-06-01 13:10:00,94.6,36.2,29.64,SW,225,1.0,7.0,13,0.00,,---,0.00,VWS V14.01,2013-06-01 20:10:00,
2013-06-01 13:15:00,94.6,36.2,29.64,SW,225,4.0,11.0,13,0.00,,---,0.00,VWS V14.01,2013-06-01 20:15:00,
2013-06-01 13:20:00,94.0,35.7,29.63,West,270,6.0,10.0,13,0.00,,---,0.00,VWS V14.01,2013-06-01 20:20:00,
2013-06-01 13:25:00,95.1,34.6,29.63,SW,225,5.0,11.0,12,0.00,,---,0.00,VWS V14.01,2013-06-01 20:25:00,
2013-06-01 13:30:00,94.7,36.3,29.63,WSW,248,4.0,9.0,13,0.00,,---,0.00,VWS V14.01,2013-06-01 20:30:00,
2013-06-01 13:35:00,94.8,34.3,29.63,ESE,112,5.0,11.0,12,0.00,,---,0.00,VWS V14.01,2013-06-01 20:35:00,
2013-06-01 13:40:00,95.4,34.8,29.62,SE,135,6.0,11.0,12,0.00,,---,0.00,VWS V14.01,2013-06-01 20:40:00,
2013-06-01 13:45:00,95.5,34.9,29.62,SSE,158,5.0,11.0,12,0.00,,---,0.00,VWS V14.01,2013-06-01 20:45:00,
2013-06-01 13:50:00,95.2,34.7,29.62,WSW,248,4.0,10.0,12,0.00,,---,0.00,VWS V14.01,2013-06-01 20:50:00,
2013-06-01 13:55:00,95.7,35.0,29.62,South,180,5.0,12.0,12,0.00,,---,0.00,VWS V14.01,2013-06-01 20:55:00,
2013-06-01 14:00:00,95.5,34.9,29.62,SSE,158,6.0,11.0,12,0.00,,---,0.00,VWS V14.01,2013-06-01 21:00:00,
2013-06-01 14:05:00,95.2,32.5,29.62,SSW,202,3.0,6.0,11,0.00,,---,0.00,VWS V14.01,2013-06-01 21:05:00,
2013-06-01 14:10:00,95.4,32.6,29.62,NNW,338,3.0,7.0,11,0.00,,---,0.00,VWS V14.01,2013-06-01 21:10:00,
2013-06-01 14:15:00,95.6,32.8,29.61,SW,225,6.0,14.0,11,0.00,,---,0.00,VWS V14.01,2013-06-01 21:15:00,
2013-06-01 14:20:00,96.2,33.2,29.62,SSW,202,7.0,14.0,11,0.00,,---,0.00,VWS V14.01,2013-06-01 21:20:00,
2013-06-01 14:25:00,96.4,31.0,29.62,SE,135,5.0,10.0,10,0.00,,---,0.00,VWS V14.01,2013-06-01 21:25:00,
2013-06-01 14:30:00,95.9,33.0,29.62,SSE,158,4.0,10.0,11,0.00,,---,0.00,VWS V14.01,2013-06-01 21:30:00,
2013-06-01 14:35:00,95.7,32.9,29.61,SSW,202,5.0,10.0,11,0.00,,---,0.00,VWS V14.01,2013-06-01 21:35:00,
2013-06-01 14:40:00,95.4,34.8,29.61,SW,225,3.0,5.0,12,0.00,,---,0.00,VWS V14.01,2013-06-01 21:40:00,
2013-06-01 14:45:00,96.5,33.5,29.61,NW,315,1.0,5.0,11,0.00,,---,0.00,VWS V14.01,2013-06-01 21:45:00,
2013-06-01 14:50:00,96.7,33.6,29.60,SE,135,4.0,10.0,11,0.00,,---,0.00,VWS V14.01,2013-06-01 21:50:00,
2013-06-01 14:55:00,96.7,33.6,29.60,South,180,3.0,7.0,11,0.00,,---,0.00,VWS V14.01,2013-06-01 21:55:00,
2013-06-01 15:00:00,96.5,33.5,29.60,SW,225,2.0,5.0,11,0.00,,---,0.00,VWS V14.01,2013-06-01 22:00:00,
2013-06-01 15:05:00,95.6,32.8,29.60,SSW,202,3.0,7.0,11,0.00,,---,0.00,VWS V14.01,2013-06-01 22:05:00,
2013-06-01 15:10:00,96.4,33.4,29.59,SE,135,2.0,6.0,11,0.00,,---,0.00,VWS V14.01,2013-06-01 22:10:00,
2013-06-01 15:13:00,96.4,33.4,29.59,SE,135,2.0,6.0,11,0.00,,---,0.00,VWS V14.01,2013-06-01 22:13:00,
2013-06-01 15:15:00,96.4,31.0,29.60,East,96,5.0,5.0,10,0.00,,---,0.00,VWS V14.01,2013-06-01 22:15:00,
2013-06-01 15:18:00,96.3,31.0,29.60,East,96,1.0,3.0,10,0.00,,---,0.00,VWS V14.01,2013-06-01 22:18:00,
2013-06-01 15:20:00,96.3,31.0,29.60,East,96,1.0,5.0,10,0.00,,---,0.00,VWS V14.01,2013-06-01 22:20:00,
2013-06-01 15:23:00,96.7,31.2,29.60,ESE,109,2.0,4.0,10,0.00,,---,0.00,VWS V14.01,2013-06-01 22:23:00,
2013-06-01 15:25:00,96.6,31.2,29.60,ESE,109,3.0,4.0,10,0.00,,---,0.00,VWS V14.01,2013-06-01 22:25:00,
2013-06-01 15:28:00,96.5,33.5,29.59,NE,53,0.0,2.0,11,0.00,,---,0.00,VWS V14.01,2013-06-01 22:28:00,
2013-06-01 15:30:00,96.4,33.4,29.59,NE,53,2.0,7.0,11,0.00,,---,0.00,VWS V14.01,2013-06-01 22:30:00,
2013-06-01 15:33:00,97.0,33.8,29.59,NE,54,7.0,8.0,11,0.00,,---,0.00,VWS V14.01,2013-06-01 22:33:00,
2013-06-01 15:35:00,97.0,33.8,29.59,ENE,61,6.0,9.0,11,0.00,,---,0.00,VWS V14.01,2013-06-01 22:35:00,
2013-06-01 15:38:00,96.9,33.8,29.59,ENE,65,6.0,6.0,11,0.00,,---,0.00,VWS V14.01,2013-06-01 22:38:00,
2013-06-01 15:40:00,96.9,33.8,29.59,ENE,65,3.0,8.0,11,0.00,,---,0.00,VWS V14.01,2013-06-01 22:40:00,
2013-06-01 15:43:00,96.8,33.7,29.59,ENE,65,1.0,2.0,11,0.00,,---,0.00,VWS V14.01,2013-06-01 22:43:00,
2013-06-01 15:45:00,96.7,33.6,29.58,ENE,65,1.0,6.0,11,0.00,,---,0.00,VWS V14.01,2013-06-01 22:45:00,
2013-06-01 15:48:00,97.1,33.9,29.58,South,169,3.0,4.0,11,0.00,,---,0.00,VWS V14.01,2013-06-01 22:48:00,
2013-06-01 15:50:00,97.1,33.9,29.58,South,169,4.0,4.0,11,0.00,,---,0.00,VWS V14.01,2013-06-01 22:50:00,
2013-06-01 15:53:00,97.1,33.9,29.58,SSE,161,5.0,5.0,11,0.00,,---,0.00,VWS V14.01,2013-06-01 22:53:00,
2013-06-01 15:55:00,97.1,33.9,29.58,South,183,4.0,8.0,11,0.00,,---,0.00,VWS V14.01,2013-06-01 22:55:00,
2013-06-01 15:58:00,97.6,34.3,29.58,SSW,206,7.0,9.0,11,0.00,,---,0.00,VWS V14.01,2013-06-01 22:58:00,
2013-06-01 16:00:00,97.6,34.3,29.58,SSW,209,6.0,8.0,11,0.00,,---,0.00,VWS V14.01,2013-06-01 23:00:00,
2013-06-01 16:03:00,97.1,31.6,29.58,SSE,163,4.0,5.0,10,0.00,,---,0.00,VWS V14.01,2013-06-01 23:03:00,
2013-06-01 16:05:00,97.1,31.6,29.58,South,186,5.0,9.0,10,0.00,,---,0.00,VWS V14.01,2013-06-01 23:05:00,
2013-06-01 16:08:00,97.2,31.6,29.58,South,186,6.0,7.0,10,0.00,,---,0.00,VWS V14.01,2013-06-01 23:08:00,
2013-06-01 16:10:00,97.2,31.6,29.58,SW,222,6.0,7.0,10,0.00,,---,0.00,VWS V14.01,2013-06-01 23:10:00,
2013-06-01 16:13:00,97.1,31.6,29.58,SSW,195,5.0,10.0,10,0.00,,---,0.00,VWS V14.01,2013-06-01 23:13:00,
2013-06-01 16:15:00,97.2,31.6,29.58,SSW,202,10.0,10.0,10,0.00,,---,0.00,VWS V14.01,2013-06-01 23:15:00,
2013-06-01 16:18:00,96.8,31.3,29.58,SSE,163,3.0,3.0,10,0.00,,---,0.00,VWS V14.01,2013-06-01 23:18:00,
2013-06-01 16:20:00,96.8,31.3,29.58,SSE,163,1.0,10.0,10,0.00,,---,0.00,VWS V14.01,2013-06-01 23:20:00,
2013-06-01 16:23:00,96.6,31.2,29.58,SE,135,4.0,5.0,10,0.00,,---,0.00,VWS V14.01,2013-06-01 23:23:00,
2013-06-01 16:25:00,96.7,31.2,29.58,SE,135,5.0,6.0,10,0.00,,---,0.00,VWS V14.01,2013-06-01 23:25:00,
2013-06-01 16:28:00,96.4,31.0,29.58,SE,130,0.0,3.0,10,0.00,,---,0.00,VWS V14.01,2013-06-01 23:28:00,
2013-06-01 16:30:00,96.4,31.0,29.58,SE,130,3.0,5.0,10,0.00,,---,0.00,VWS V14.01,2013-06-01 23:30:00,
2013-06-01 16:33:00,96.8,31.3,29.57,SE,133,3.0,4.0,10,0.00,,---,0.00,VWS V14.01,2013-06-01 23:33:00,
2013-06-01 16:35:00,96.8,31.3,29.57,SE,129,4.0,5.0,10,0.00,,---,0.00,VWS V14.01,2013-06-01 23:35:00,
2013-06-01 16:38:00,96.8,31.3,29.57,SSE,166,3.0,3.0,10,0.00,,---,0.00,VWS V14.01,2013-06-01 23:38:00,
2013-06-01 16:40:00,96.8,31.3,29.57,SSE,165,1.0,6.0,10,0.00,,---,0.00,VWS V14.01,2013-06-01 23:40:00,
2013-06-01 16:43:00,96.9,31.4,29.57,SW,227,0.0,4.0,10,0.00,,---,0.00,VWS V14.01,2013-06-01 23:43:00,
2013-06-01 16:45:00,96.9,31.4,29.57,SW,227,4.0,7.0,10,0.00,,---,0.00,VWS V14.01,2013-06-01 23:45:00,
2013-06-01 16:48:00,96.9,31.4,29.57,SE,134,6.0,6.0,10,0.00,,---,0.00,VWS V14.01,2013-06-01 23:48:00,
2013-06-01 16:50:00,96.9,31.4,29.57,SSE,164,2.0,5.0,10,0.00,,---,0.00,VWS V14.01,2013-06-01 23:50:00,
2013-06-01 16:53:00,96.8,31.3,29.57,SE,142,5.0,5.0,10,0.00,,---,0.00,VWS V14.01,2013-06-01 23:53:00,
2013-06-01 16:55:00,96.8,31.3,29.57,SSE,151,4.0,6.0,10,0.00,,---,0.00,VWS V14.01,2013-06-01 23:55:00,
2013-06-01 16:58:00,96.4,31.0,29.56,East,98,0.0,5.0,10,0.00,,---,0.00,VWS V14.01,2013-06-01 23:58:00,
2013-06-01 17:00:00,96.4,31.0,29.57,East,98,5.0,9.0,10,0.00,,---,0.00,VWS V14.01,2013-06-02 00:00:00,
2013-06-01 17:03:00,96.6,31.2,29.56,ESE,109,4.0,4.0,10,0.00,,---,0.00,VWS V14.01,2013-06-02 00:03:00,
2013-06-01 17:05:00,96.6,31.2,29.57,ESE,109,3.0,9.0,10,0.00,,---,0.00,VWS V14.01,2013-06-02 00:05:00,
2013-06-01 17:08:00,96.4,31.0,29.56,East,98,4.0,4.0,10,0.00,,---,0.00,VWS V14.01,2013-06-02 00:08:00,
2013-06-01 17:10:00,96.4,31.0,29.56,East,98,2.0,9.0,10,0.00,,---,0.00,VWS V14.01,2013-06-02 00:10:00,
2013-06-01 17:13:00,96.4,31.0,29.56,ENE,71,7.0,9.0,10,0.00,,---,0.00,VWS V14.01,2013-06-02 00:13:00,
2013-06-01 17:15:00,96.4,31.0,29.56,ENE,71,7.0,7.0,10,0.00,,---,0.00,VWS V14.01,2013-06-02 00:15:00,
2013-06-01 17:18:00,96.7,31.2,29.56,SE,139,4.0,4.0,10,0.00,,---,0.00,VWS V14.01,2013-06-02 00:18:00,
2013-06-01 17:20:00,96.7,31.2,29.56,SE,140,3.0,9.0,10,0.00,,---,0.00,VWS V14.01,2013-06-02 00:20:00,
2013-06-01 17:23:00,96.4,31.0,29.56,SSW,203,10.0,10.0,10,0.00,,---,0.00,VWS V14.01,2013-06-02 00:23:00,
2013-06-01 17:25:00,96.4,31.0,29.56,SSE,155,6.0,10.0,10,0.00,,---,0.00,VWS V14.01,2013-06-02 00:25:00,
2013-06-01 17:28:00,96.4,31.0,29.56,SSW,213,0.0,3.0,10,0.00,,---,0.00,VWS V14.01,2013-06-02 00:28:00,
2013-06-01 17:30:00,96.4,31.0,29.56,SSW,213,3.0,10.0,10,0.00,,---,0.00,VWS V14.01,2013-06-02 00:30:00,
2013-06-01 17:33:00,96.7,31.2,29.56,WSW,245,3.0,3.0,10,0.00,,---,0.00,VWS V14.01,2013-06-02 00:33:00,
2013-06-01 17:35:00,96.7,31.2,29.56,WSW,245,3.0,6.0,10,0.00,,---,0.00,VWS V14.01,2013-06-02 00:35:00,
2013-06-01 17:38:00,96.7,33.6,29.56,West,261,7.0,7.0,11,0.00,,---,0.00,VWS V14.01,2013-06-02 00:38:00,
2013-06-01 17:40:00,96.7,33.6,29.56,WSW,238,3.0,12.0,11,0.00,,---,0.00,VWS V14.01,2013-06-02 00:40:00,
2013-06-01 17:43:00,96.3,33.3,29.56,West,262,5.0,5.0,11,0.00,,---,0.00,VWS V14.01,2013-06-02 00:43:00,
2013-06-01 17:45:00,96.3,33.3,29.56,West,261,4.0,7.0,11,0.00,,---,0.00,VWS V14.01,2013-06-02 00:45:00,
2013-06-01 17:48:00,96.2,33.2,29.56,West,272,5.0,5.0,11,0.00,,---,0.00,VWS V14.01,2013-06-02 00:48:00,
2013-06-01 17:50:00,96.2,33.2,29.56,West,272,4.0,7.0,11,0.00,,---,0.00,VWS V14.01,2013-06-02 00:50:00,
2013-06-01 17:53:00,96.1,33.2,29.56,South,187,2.0,4.0,11,0.00,,---,0.00,VWS V14.01,2013-06-02 00:53:00,
2013-06-01 17:55:00,96.1,33.2,29.56,South,188,4.0,16.0,11,0.00,,---,0.00,VWS V14.01,2013-06-02 00:55:00,
2013-06-01 17:58:00,96.0,33.1,29.56,SSW,203,3.0,5.0,11,0.00,,---,0.00,VWS V14.01,2013-06-02 00:58:00,
2013-06-01 18:00:00,96.0,33.1,29.56,SSW,202,4.0,6.0,11,0.00,,---,0.00,VWS V14.01,2013-06-02 01:00:00,
2013-06-01 18:03:00,96.0,33.1,29.56,South,178,1.0,2.0,11,0.00,,---,0.00,VWS V14.01,2013-06-02 01:03:00,
2013-06-01 18:05:00,96.0,33.1,29.56,South,178,2.0,5.0,11,0.00,,---,0.00,VWS V14.01,2013-06-02 01:05:00,
2013-06-01 18:08:00,96.0,33.1,29.56,South,186,5.0,6.0,11,0.00,,---,0.00,VWS V14.01,2013-06-02 01:08:00,
2013-06-01 18:10:00,96.0,33.1,29.56,South,179,3.0,4.0,11,0.00,,---,0.00,VWS V14.01,2013-06-02 01:10:00,
2013-06-01 18:13:00,96.0,33.1,29.56,SSW,207,4.0,4.0,11,0.00,,---,0.00,VWS V14.01,2013-06-02 01:13:00,
2013-06-01 18:15:00,96.0,33.1,29.56,SSW,199,4.0,7.0,11,0.00,,---,0.00,VWS V14.01,2013-06-02 01:15:00,
2013-06-01 18:18:00,95.7,32.9,29.56,WSW,254,6.0,9.0,11,0.00,,---,0.00,VWS V14.01,2013-06-02 01:18:00,
2013-06-01 18:20:00,95.7,32.9,29.56,WSW,256,9.0,9.0,11,0.00,,---,0.00,VWS V14.01,2013-06-02 01:20:00,
2013-06-01 18:23:00,95.3,32.5,29.56,WNW,295,8.0,10.0,11,0.00,,---,0.00,VWS V14.01,2013-06-02 01:23:00,
2013-06-01 18:25:00,95.3,32.5,29.56,WNW,291,10.0,11.0,11,0.00,,---,0.00,VWS V14.01,2013-06-02 01:25:00,
2013-06-01 18:28:00,95.0,32.3,29.56,NW,307,3.0,3.0,11,0.00,,---,0.00,VWS V14.01,2013-06-02 01:28:00,
2013-06-01 18:30:00,95.0,32.3,29.56,NW,307,3.0,12.0,11,0.00,,---,0.00,VWS V14.01,2013-06-02 01:30:00,
2013-06-01 18:33:00,94.7,32.1,29.56,NW,309,4.0,5.0,11,0.00,,---,0.00,VWS V14.01,2013-06-02 01:33:00,
2013-06-01 18:35:00,94.7,32.1,29.56,NW,309,5.0,10.0,11,0.00,,---,0.00,VWS V14.01,2013-06-02 01:35:00,
2013-06-01 18:38:00,94.7,32.1,29.56,NW,315,4.0,4.0,11,0.00,,---,0.00,VWS V14.01,2013-06-02 01:38:00,
2013-06-01 18:40:00,94.7,32.1,29.56,NW,315,3.0,6.0,11,0.00,,---,0.00,VWS V14.01,2013-06-02 01:40:00,
2013-06-01 18:43:00,94.5,31.9,29.57,WNW,303,3.0,3.0,11,0.00,,---,0.00,VWS V14.01,2013-06-02 01:43:00,
2013-06-01 18:45:00,94.5,31.9,29.57,WNW,303,3.0,6.0,11,0.00,,---,0.00,VWS V14.01,2013-06-02 01:45:00,
2013-06-01 18:48:00,94.0,31.6,29.57,WNW,303,1.0,2.0,11,0.00,,---,0.00,VWS V14.01,2013-06-02 01:48:00,
2013-06-01 18:50:00,94.0,31.6,29.57,WNW,303,2.0,10.0,11,0.00,,---,0.00,VWS V14.01,2013-06-02 01:50:00,
2013-06-01 18:53:00,93.6,31.2,29.56,NW,319,4.0,6.0,11,0.00,,---,0.00,VWS V14.01,2013-06-02 01:53:00,
2013-06-01 18:55:00,93.7,31.3,29.56,NW,319,5.0,7.0,11,0.00,,---,0.00,VWS V14.01,2013-06-02 01:55:00,
2013-06-01 18:58:00,93.0,30.8,29.57,WNW,289,5.0,9.0,11,0.00,,---,0.00,VWS V14.01,2013-06-02 01:58:00,
2013-06-01 19:00:00,93.1,30.9,29.57,WNW,288,9.0,9.0,11,0.00,,---,0.00,VWS V14.01,2013-06-02 02:00:00,
2013-06-01 19:03:00,92.4,30.3,29.57,WNW,292,3.0,3.0,11,0.00,,---,0.00,VWS V14.01,2013-06-02 02:03:00,
2013-06-01 19:05:00,92.4,30.3,29.57,WNW,292,2.0,9.0,11,0.00,,---,0.00,VWS V14.01,2013-06-02 02:05:00,
2013-06-01 19:08:00,91.8,32.0,29.57,WNW,291,3.0,3.0,12,0.00,,---,0.00,VWS V14.01,2013-06-02 02:08:00,
2013-06-01 19:10:00,91.8,32.0,29.57,WNW,292,1.0,7.0,12,0.00,,---,0.00,VWS V14.01,2013-06-02 02:10:00,
2013-06-01 19:13:00,91.0,31.4,29.57,WNW,292,0.0,1.0,12,0.00,,---,0.00,VWS V14.01,2013-06-02 02:13:00,
2013-06-01 19:15:00,91.0,31.4,29.57,WNW,291,1.0,3.0,12,0.00,,---,0.00,VWS V14.01,2013-06-02 02:15:00,
2013-06-01 19:18:00,90.3,30.9,29.57,WNW,291,1.0,1.0,12,0.00,,---,0.00,VWS V14.01,2013-06-02 02:18:00,
2013-06-01 19:20:00,90.4,30.9,29.57,WNW,292,0.0,3.0,12,0.00,,---,0.00,VWS V14.01,2013-06-02 02:20:00,
2013-06-01 19:23:00,89.6,30.3,29.57,WNW,292,0.0,0.0,12,0.00,,---,0.00,VWS V14.01,2013-06-02 02:23:00,
2013-06-01 19:25:00,89.6,30.3,29.57,WNW,292,0.0,2.0,12,0.00,,---,0.00,VWS V14.01,2013-06-02 02:25:00,
2013-06-01 19:28:00,88.9,29.8,29.57,WNW,292,0.0,0.0,12,0.00,,---,0.00,VWS V14.01,2013-06-02 02:28:00,
2013-06-01 19:30:00,88.9,29.8,29.57,WNW,291,0.0,2.0,12,0.00,,---,0.00,VWS V14.01,2013-06-02 02:30:00,
2013-06-01 19:33:00,88.2,31.2,29.57,WNW,291,0.0,0.0,13,0.00,,---,0.00,VWS V14.01,2013-06-02 02:33:00,
2013-06-01 19:35:00,88.3,31.3,29.57,WNW,291,0.0,0.0,13,0.00,,---,0.00,VWS V14.01,2013-06-02 02:35:00,
2013-06-01 19:38:00,87.8,30.9,29.57,WNW,291,0.0,0.0,13,0.00,,---,0.00,VWS V14.01,2013-06-02 02:38:00,
2013-06-01 19:40:00,87.8,30.9,29.57,WNW,291,0.0,0.0,13,0.00,,---,0.00,VWS V14.01,2013-06-02 02:40:00,
2013-06-01 19:43:00,87.3,30.5,29.57,WNW,292,0.0,1.0,13,0.00,,---,0.00,VWS V14.01,2013-06-02 02:43:00,
2013-06-01 19:45:00,87.3,30.5,29.57,WNW,292,0.0,0.0,13,0.00,,---,0.00,VWS V14.01,2013-06-02 02:45:00,
2013-06-01 19:48:00,86.6,30.0,29.58,WNW,293,0.0,0.0,13,0.00,,---,0.00,VWS V14.01,2013-06-02 02:48:00,
2013-06-01 19:50:00,86.6,30.0,29.58,WNW,293,0.0,2.0,13,0.00,,---,0.00,VWS V14.01,2013-06-02 02:50:00,
2013-06-01 19:53:00,85.8,29.3,29.58,WNW,292,0.0,0.0,13,0.00,,---,0.00,VWS V14.01,2013-06-02 02:53:00,
2013-06-01 19:55:00,85.9,29.4,29.58,WNW,292,0.0,1.0,13,0.00,,---,0.00,VWS V14.01,2013-06-02 02:55:00,
2013-06-01 19:58:00,85.5,30.9,29.58,WNW,293,0.0,0.0,14,0.00,,---,0.00,VWS V14.01,2013-06-02 02:58:00,
2013-06-01 20:00:00,85.5,30.9,29.58,WNW,292,0.0,0.0,14,0.00,,---,0.00,VWS V14.01,2013-06-02 03:00:00,
2013-06-01 20:03:00,85.2,30.7,29.58,WNW,293,0.0,0.0,14,0.00,,---,0.00,VWS V14.01,2013-06-02 03:03:00,
2013-06-01 20:05:00,85.2,30.7,29.58,WNW,292,0.0,1.0,14,0.00,,---,0.00,VWS V14.01,2013-06-02 03:05:00,
2013-06-01 20:08:00,85.2,30.7,29.58,WNW,293,0.0,0.0,14,0.00,,---,0.00,VWS V14.01,2013-06-02 03:08:00,
2013-06-01 20:10:00,85.1,30.6,29.58,WNW,292,0.0,0.0,14,0.00,,---,0.00,VWS V14.01,2013-06-02 03:10:00,
2013-06-01 20:13:00,84.9,30.4,29.59,WNW,293,0.0,0.0,14,0.00,,---,0.00,VWS V14.01,2013-06-02 03:13:00,
2013-06-01 20:15:00,84.9,30.4,29.59,WNW,293,0.0,1.0,14,0.00,,---,0.00,VWS V14.01,2013-06-02 03:15:00,
2013-06-01 20:18:00,84.5,30.1,29.58,WNW,293,0.0,0.0,14,0.00,,---,0.00,VWS V14.01,2013-06-02 03:18:00,
2013-06-01 20:20:00,84.5,30.1,29.59,WNW,293,0.0,1.0,14,0.00,,---,0.00,VWS V14.01,2013-06-02 03:20:00,
2013-06-01 20:23:00,84.1,31.5,29.59,WNW,294,0.0,0.0,15,0.00,,---,0.00,VWS V14.01,2013-06-02 03:23:00,
2013-06-01 20:25:00,84.1,31.5,29.59,WNW,294,0.0,3.0,15,0.00,,---,0.00,VWS V14.01,2013-06-02 03:25:00,
2013-06-01 20:28:00,83.7,31.2,29.58,WNW,294,0.0,0.0,15,0.00,,---,0.00,VWS V14.01,2013-06-02 03:28:00,
2013-06-01 20:30:00,83.7,31.2,29.58,WNW,294,0.0,0.0,15,0.00,,---,0.00,VWS V14.01,2013-06-02 03:30:00,
2013-06-01 20:33:00,82.3,30.1,29.59,WNW,294,0.0,0.0,15,0.00,,---,0.00,VWS V14.01,2013-06-02 03:33:00,
2013-06-01 20:35:00,82.3,30.1,29.58,WNW,294,0.0,1.0,15,0.00,,---,0.00,VWS V14.01,2013-06-02 03:35:00,
2013-06-01 20:38:00,80.0,29.8,29.59,NNW,333,0.0,0.0,16,0.00,,---,0.00,VWS V14.01,2013-06-02 03:38:00,
2013-06-01 20:40:00,80.0,29.8,29.59,NNW,333,0.0,2.0,16,0.00,,---,0.00,VWS V14.01,2013-06-02 03:40:00,
2013-06-01 20:43:00,78.1,29.8,29.59,NNW,333,0.0,0.0,17,0.00,,---,0.00,VWS V14.01,2013-06-02 03:43:00,
2013-06-01 20:45:00,78.1,29.8,29.59,NNW,334,0.0,0.0,17,0.00,,---,0.00,VWS V14.01,2013-06-02 03:45:00,
2013-06-01 20:48:00,77.5,29.3,29.59,NNW,334,0.0,0.0,17,0.00,,---,0.00,VWS V14.01,2013-06-02 03:48:00,
2013-06-01 20:50:00,77.5,29.3,29.59,NNW,334,0.0,0.0,17,0.00,,---,0.00,VWS V14.01,2013-06-02 03:50:00,
2013-06-01 20:53:00,77.2,29.0,29.59,NNW,334,0.0,0.0,17,0.00,,---,0.00,VWS V14.01,2013-06-02 03:53:00,
2013-06-01 20:55:00,77.2,29.0,29.59,NNW,334,0.0,0.0,17,0.00,,---,0.00,VWS V14.01,2013-06-02 03:55:00,
2013-06-01 20:58:00,77.0,28.9,29.60,NNW,334,0.0,0.0,17,0.00,,---,0.00,VWS V14.01,2013-06-02 03:58:00,
2013-06-01 21:00:00,77.0,28.9,29.60,NNW,334,0.0,0.0,17,0.00,,---,0.00,VWS V14.01,2013-06-02 04:00:00,
2013-06-01 21:01:00,76.9,28.8,29.60,NNW,334,0.0,0.0,17,0.00,,---,0.00,VWS V14.01,2013-06-02 04:01:00,
2013-06-01 21:05:00,77.3,30.5,29.60,NNW,336,0.0,2.0,18,0.00,,---,0.00,VWS V14.01,2013-06-02 04:05:00,
2013-06-01 21:06:00,78.1,29.8,29.60,NNW,338,0.0,2.0,17,0.00,,---,0.00,VWS V14.01,2013-06-02 04:06:00,
2013-06-01 21:10:00,78.7,30.3,29.60,NNW,337,0.0,2.0,17,0.00,,---,0.00,VWS V14.01,2013-06-02 04:10:00,
2013-06-01 21:11:00,79.3,30.8,29.60,NNW,339,0.0,2.0,17,0.00,,---,0.00,VWS V14.01,2013-06-02 04:11:00,
2013-06-01 21:15:00,79.3,29.3,29.60,NNW,339,0.0,2.0,16,0.00,,---,0.00,VWS V14.01,2013-06-02 04:15:00,
2013-06-01 21:16:00,78.9,30.4,29.60,NNW,339,0.0,0.0,17,0.00,,---,0.00,VWS V14.01,2013-06-02 04:16:00,
2013-06-01 21:20:00,78.5,30.1,29.60,NNW,339,0.0,0.0,17,0.00,,---,0.00,VWS V14.01,2013-06-02 04:20:00,
2013-06-01 21:21:00,77.6,29.4,29.60,NNW,339,0.0,0.0,17,0.00,,---,0.00,VWS V14.01,2013-06-02 04:21:00,
2013-06-01 21:25:00,76.9,28.8,29.60,NNW,339,0.0,0.0,17,0.00,,---,0.00,VWS V14.01,2013-06-02 04:25:00,
2013-06-01 21:26:00,76.0,29.5,29.61,NNW,339,0.0,0.0,18,0.00,,---,0.00,VWS V14.01,2013-06-02 04:26:00,
2013-06-01 21:30:00,75.5,29.1,29.61,NNW,338,0.0,0.0,18,0.00,,---,0.00,VWS V14.01,2013-06-02 04:30:00,
2013-06-01 21:31:00,75.0,28.7,29.61,NNW,338,0.0,0.0,18,0.00,,---,0.00,VWS V14.01,2013-06-02 04:31:00,
2013-06-01 21:35:00,74.7,28.4,29.61,NNW,339,0.0,0.0,18,0.00,,---,0.00,VWS V14.01,2013-06-02 04:35:00,
2013-06-01 21:36:00,74.3,29.4,29.62,NNW,339,0.0,0.0,19,0.00,,---,0.00,VWS V14.01,2013-06-02 04:36:00,
2013-06-01 21:40:00,74.0,29.2,29.61,NNW,339,0.0,0.0,19,0.00,,---,0.00,VWS V14.01,2013-06-02 04:40:00,
2013-06-01 21:41:00,73.9,29.1,29.62,NNW,339,0.0,0.0,19,0.00,,---,0.00,VWS V14.01,2013-06-02 04:41:00,
2013-06-01 21:45:00,74.1,29.2,29.62,NNW,338,0.0,0.0,19,0.00,,---,0.00,VWS V14.01,2013-06-02 04:45:00,
2013-06-01 21:46:00,74.1,29.2,29.62,NNW,338,0.0,0.0,19,0.00,,---,0.00,VWS V14.01,2013-06-02 04:46:00,
2013-06-01 21:50:00,74.0,29.2,29.62,NNW,339,0.0,0.0,19,0.00,,---,0.00,VWS V14.01,2013-06-02 04:50:00,
2013-06-01 21:51:00,73.8,29.0,29.62,NNW,338,0.0,0.0,19,0.00,,---,0.00,VWS V14.01,2013-06-02 04:51:00,
2013-06-01 21:55:00,73.5,28.8,29.63,NNW,339,0.0,0.0,19,0.00,,---,0.00,VWS V14.01,2013-06-02 04:55:00,
2013-06-01 21:56:00,73.5,30.0,29.63,NNW,339,0.0,0.0,20,0.00,,---,0.00,VWS V14.01,2013-06-02 04:56:00,
2013-06-01 22:00:00,73.6,28.8,29.63,NNW,339,0.0,0.0,19,0.00,,---,0.00,VWS V14.01,2013-06-02 05:00:00,
2013-06-01 22:01:00,74.1,30.5,29.63,NNW,338,0.0,2.0,20,0.00,,---,0.00,VWS V14.01,2013-06-02 05:01:00,
2013-06-01 22:05:00,74.7,29.7,29.63,NNW,338,0.0,2.0,19,0.00,,---,0.00,VWS V14.01,2013-06-02 05:05:00,
2013-06-01 22:06:00,75.1,30.1,29.63,NNW,339,0.0,0.0,19,0.00,,---,0.00,VWS V14.01,2013-06-02 05:06:00,
2013-06-01 22:10:00,75.6,30.5,29.63,NNW,338,0.0,0.0,19,0.00,,---,0.00,VWS V14.01,2013-06-02 05:10:00,
2013-06-01 22:11:00,75.9,30.7,29.63,NNW,338,0.0,0.0,19,0.00,,---,0.00,VWS V14.01,2013-06-02 05:11:00,
2013-06-01 22:15:00,76.0,30.8,29.63,NNW,339,0.0,0.0,19,0.00,,---,0.00,VWS V14.01,2013-06-02 05:15:00,
2013-06-01 22:16:00,76.0,30.8,29.63,NNW,339,0.0,1.0,19,0.00,,---,0.00,VWS V14.01,2013-06-02 05:16:00,
2013-06-01 22:20:00,76.1,30.9,29.63,NNW,338,0.0,1.0,19,0.00,,---,0.00,VWS V14.01,2013-06-02 05:20:00,
2013-06-01 22:21:00,76.4,31.1,29.63,NNW,340,1.0,3.0,19,0.00,,---,0.00,VWS V14.01,2013-06-02 05:21:00,
2013-06-01 22:25:00,76.8,31.5,29.63,NNW,342,0.0,4.0,19,0.00,,---,0.00,VWS V14.01,2013-06-02 05:25:00,
2013-06-01 22:26:00,77.0,31.6,29.63,NNW,343,0.0,0.0,19,0.00,,---,0.00,VWS V14.01,2013-06-02 05:26:00,
2013-06-01 22:30:00,77.1,31.7,29.64,NNW,344,0.0,0.0,19,0.00,,---,0.00,VWS V14.01,2013-06-02 05:30:00,
2013-06-01 22:31:00,77.1,31.7,29.63,NNW,344,0.0,0.0,19,0.00,,---,0.00,VWS V14.01,2013-06-02 05:31:00,
2013-06-01 22:35:00,76.6,31.3,29.64,NNW,344,0.0,0.0,19,0.00,,---,0.00,VWS V14.01,2013-06-02 05:35:00,
2013-06-01 22:36:00,75.7,30.6,29.64,NNW,344,0.0,0.0,19,0.00,,---,0.00,VWS V14.01,2013-06-02 05:36:00,
2013-06-01 22:40:00,74.8,31.1,29.64,NNW,344,0.0,0.0,20,0.00,,---,0.00,VWS V14.01,2013-06-02 05:40:00,
2013-06-01 22:41:00,73.9,30.3,29.64,NNW,344,0.0,0.0,20,0.00,,---,0.00,VWS V14.01,2013-06-02 05:41:00,
2013-06-01 22:45:00,73.3,29.8,29.64,NNW,344,0.0,0.0,20,0.00,,---,0.00,VWS V14.01,2013-06-02 05:45:00,
2013-06-01 22:46:00,72.8,30.6,29.64,NNW,344,0.0,0.0,21,0.00,,---,0.00,VWS V14.01,2013-06-02 05:46:00,
2013-06-01 22:50:00,72.6,30.5,29.64,NNW,344,0.0,0.0,21,0.00,,---,0.00,VWS V14.01,2013-06-02 05:50:00,
2013-06-01 22:51:00,72.2,30.1,29.64,NNW,344,0.0,0.0,21,0.00,,---,0.00,VWS V14.01,2013-06-02 05:51:00,
2013-06-01 22:55:00,72.2,31.3,29.64,NNW,344,0.0,0.0,22,0.00,,---,0.00,VWS V14.01,2013-06-02 05:55:00,
2013-06-01 22:56:00,72.5,31.5,29.64,NNW,344,0.0,1.0,22,0.00,,---,0.00,VWS V14.01,2013-06-02 05:56:00,
2013-06-01 23:00:00,73.0,31.9,29.64,NNW,344,0.0,1.0,22,0.00,,---,0.00,VWS V14.01,2013-06-02 06:00:00,
2013-06-01 23:01:00,73.6,32.5,29.64,NNW,344,0.0,0.0,22,0.00,,---,0.00,VWS V14.01,2013-06-02 06:01:00,
2013-06-01 23:05:00,74.0,32.8,29.63,NNW,344,0.0,0.0,22,0.00,,---,0.00,VWS V14.01,2013-06-02 06:05:00,
2013-06-01 23:06:00,74.4,33.1,29.64,NNW,344,0.0,0.0,22,0.00,,---,0.00,VWS V14.01,2013-06-02 06:06:00,
2013-06-01 23:10:00,74.6,33.3,29.64,NNW,344,0.0,0.0,22,0.00,,---,0.00,VWS V14.01,2013-06-02 06:10:00,
2013-06-01 23:11:00,74.8,32.3,29.64,NNW,344,0.0,0.0,21,0.00,,---,0.00,VWS V14.01,2013-06-02 06:11:00,
2013-06-01 23:15:00,74.7,32.2,29.64,NNW,344,0.0,0.0,21,0.00,,---,0.00,VWS V14.01,2013-06-02 06:15:00,
2013-06-01 23:16:00,74.4,32.0,29.64,NNW,344,0.0,1.0,21,0.00,,---,0.00,VWS V14.01,2013-06-02 06:16:00,
2013-06-01 23:20:00,73.3,32.2,29.64,NNW,344,0.0,0.0,22,0.00,,---,0.00,VWS V14.01,2013-06-02 06:20:00,
2013-06-01 23:25:00,72.2,32.4,29.64,NNW,344,0.0,0.0,23,0.00,,---,0.00,VWS V14.01,2013-06-02 06:25:00,
2013-06-01 23:30:00,71.3,31.6,29.64,NNW,344,0.0,0.0,23,0.00,,---,0.00,VWS V14.01,2013-06-02 06:30:00,
2013-06-01 23:35:00,70.4,31.9,29.64,NNW,344,0.0,0.0,24,0.00,,---,0.00,VWS V14.01,2013-06-02 06:35:00,
2013-06-01 23:40:00,69.8,31.4,29.64,NNW,345,0.0,1.0,24,0.00,,---,0.00,VWS V14.01,2013-06-02 06:40:00,
2013-06-01 23:45:00,69.4,32.1,29.64,NNW,345,0.0,0.0,25,0.00,,---,0.00,VWS V14.01,2013-06-02 06:45:00,
2013-06-01 23:50:00,69.3,32.0,29.64,NNW,346,0.0,0.0,25,0.00,,---,0.00,VWS V14.01,2013-06-02 06:50:00,
2013-06-01 23:55:00,69.3,32.0,29.64,NNW,345,0.0,0.0,25,0.00,,---,0.00,VWS V14.01,2013-06-02 06:55:00,